| time (UTC) | temp F | wind direction | speed MPH | gust MPH | rain 1hr in | rain 24hr in | rain mn in | humidity % | barometer mb |
| 20260508035758 | 50 | 233 | 0.0 | 0.0 | 0.00 | 0.14 | 0.00 | 88 | 1017.1 |
| 20260508034757 | 50 | 233 | 0.0 | 0.0 | 0.00 | 0.14 | 0.00 | 87 | 1017.1 |
| 20260508033757 | 50 | 233 | 0.0 | 0.0 | 0.00 | 0.14 | 0.00 | 88 | 1017.1 |
| 20260508032758 | 51 | 232 | 0.0 | 0.0 | 0.00 | 0.14 | 0.00 | 87 | 1017.1 |
| 20260508032258 | 51 | 233 | 0.0 | 0.0 | 0.00 | 0.14 | 0.00 | 87 | 1017.1 |
| 20260508031758 | 51 | 233 | 0.0 | 0.0 | 0.00 | 0.14 | 0.00 | 87 | 1017.1 |
| 20260508031258 | 51 | 233 | 0.0 | 0.0 | 0.00 | 0.14 | 0.00 | 87 | 1017.1 |
| 20260508030757 | 51 | 233 | 0.0 | 0.0 | 0.00 | 0.14 | 0.00 | 87 | 1017.1 |
| 20260508030259 | 51 | 233 | 0.0 | 0.0 | 0.00 | 0.14 | 0.00 | 87 | 1017.1 |
| 20260508025758 | 51 | 233 | 0.0 | 0.0 | 0.00 | 0.14 | 0.00 | 88 | 1017.1 |
| 20260508025258 | 50 | 233 | 0.0 | 0.0 | 0.00 | 0.14 | 0.00 | 88 | 1017.1 |
| 20260508024757 | 50 | 233 | 0.0 | 0.0 | 0.00 | 0.14 | 0.00 | 88 | 1017.1 |
| 20260508024258 | 50 | 275 | 0.0 | 0.0 | 0.00 | 0.14 | 0.00 | 87 | 1017.1 |
| 20260508023758 | 50 | 298 | 0.0 | 0.0 | 0.00 | 0.14 | 0.00 | 86 | 1017.1 |
| 20260508023258 | 50 | 298 | 0.0 | 0.0 | 0.00 | 0.14 | 0.00 | 85 | 1017.1 |
| 20260508022757 | 51 | 298 | 0.0 | 0.0 | 0.00 | 0.14 | 0.00 | 83 | 1017.2 |
| 20260508022258 | 51 | 298 | 0.0 | 0.0 | 0.00 | 0.14 | 0.00 | 83 | 1017.2 |
| 20260508021758 | 51 | 298 | 0.0 | 0.0 | 0.00 | 0.14 | 0.00 | 83 | 1017.2 |
| 20260508021259 | 51 | 298 | 0.0 | 0.0 | 0.00 | 0.14 | 0.00 | 83 | 1017.2 |
| 20260508020758 | 51 | 298 | 0.0 | 0.0 | 0.00 | 0.14 | 0.00 | 84 | 1017.2 |
| 20260508020258 | 51 | 317 | 0.0 | 0.0 | 0.00 | 0.14 | 0.00 | 84 | 1017.2 |
| 20260508015757 | 51 | 313 | 0.0 | 0.0 | 0.00 | 0.14 | 0.00 | 86 | 1017.2 |
| 20260508015259 | 51 | 250 | 0.0 | 0.0 | 0.00 | 0.14 | 0.00 | 85 | 1017.2 |
| 20260508014759 | 51 | 281 | 0.0 | 0.0 | 0.00 | 0.14 | 0.00 | 84 | 1017.2 |
| 20260508014259 | 51 | 263 | 0.0 | 0.0 | 0.00 | 0.14 | 0.00 | 85 | 1017.0 |
| 20260508013757 | 51 | 240 | 0.0 | 0.0 | 0.00 | 0.14 | 0.00 | 85 | 1017.0 |
| 20260508013257 | 51 | 236 | 0.0 | 0.0 | 0.00 | 0.14 | 0.00 | 84 | 1017.0 |
| 20260508012758 | 51 | 236 | 0.0 | 0.0 | 0.00 | 0.14 | 0.00 | 84 | 1017.0 |
| 20260508011758 | 51 | 236 | 0.0 | 0.0 | 0.00 | 0.14 | 0.00 | 83 | 1017.0 |
| 20260508010758 | 52 | 236 | 0.0 | 0.0 | 0.00 | 0.14 | 0.00 | 83 | 1017.0 |
| 20260508010259 | 52 | 236 | 0.0 | 0.0 | 0.00 | 0.14 | 0.00 | 83 | 1017.0 |
| 20260508005758 | 52 | 236 | 0.0 | 0.0 | 0.00 | 0.14 | 0.00 | 82 | 1017.0 |
| 20260508005257 | 52 | 236 | 0.0 | 0.0 | 0.00 | 0.14 | 0.00 | 82 | 1017.0 |
| 20260508004758 | 52 | 236 | 0.0 | 0.0 | 0.00 | 0.14 | 0.00 | 81 | 1017.0 |
| 20260508003758 | 53 | 236 | 0.0 | 0.0 | 0.00 | 0.14 | 0.00 | 81 | 1016.9 |
| 20260508003257 | 53 | 237 | 0.0 | 0.0 | 0.00 | 0.14 | 0.00 | 80 | 1016.9 |
| 20260508002758 | 53 | 237 | 0.0 | 0.0 | 0.00 | 0.14 | 0.00 | 79 | 1016.7 |
| 20260508002258 | 53 | 237 | 0.0 | 0.0 | 0.00 | 0.14 | 0.00 | 79 | 1016.7 |
| 20260508001757 | 53 | 237 | 0.0 | 0.0 | 0.00 | 0.14 | 0.00 | 79 | 1016.7 |
| 20260508001258 | 54 | 227 | 0.0 | 0.0 | 0.00 | 0.14 | 0.00 | 78 | 1016.7 |
| 20260508000759 | 54 | 225 | 0.0 | 0.0 | 0.00 | 0.14 | 0.00 | 76 | 1016.7 |
| 20260508000258 | 54 | 249 | 0.0 | 0.0 | 0.00 | 0.14 | 0.00 | 75 | 1016.7 |
| 20260507235758 | 55 | 303 | 0.0 | 0.0 | 0.00 | 0.14 | 0.00 | 74 | 1016.7 |
| 20260507235258 | 55 | 8 | 1.0 | 0.0 | 0.00 | 0.14 | 0.00 | 75 | 1016.7 |
| 20260507234759 | 55 | 311 | 1.0 | 5.0 | 0.00 | 0.14 | 0.00 | 75 | 1016.7 |
| 20260507234259 | 55 | 299 | 2.0 | 3.0 | 0.00 | 0.14 | 0.00 | 76 | 1016.7 |
| 20260507233758 | 55 | 287 | 2.0 | 6.0 | 0.00 | 0.14 | 0.00 | 76 | 1016.7 |
| 20260507232758 | 55 | 310 | 2.0 | 7.0 | 0.00 | 0.14 | 0.00 | 77 | 1016.7 |
| 20260507232258 | 54 | 24 | 0.0 | 8.0 | 0.00 | 0.14 | 0.00 | 78 | 1016.7 |
| 20260507231759 | 54 | 310 | 0.0 | 7.0 | 0.00 | 0.14 | 0.00 | 80 | 1016.7 |
| 20260507231258 | 53 | 297 | 0.0 | 5.0 | 0.00 | 0.14 | 0.00 | 82 | 1016.9 |
| 20260507230758 | 53 | 285 | 0.0 | 5.0 | 0.00 | 0.14 | 0.00 | 83 | 1016.9 |
| 20260507225759 | 53 | 251 | 0.0 | 0.0 | 0.00 | 0.14 | 0.00 | 83 | 1016.9 |
| 20260507225258 | 53 | 251 | 0.0 | 0.0 | 0.00 | 0.14 | 0.00 | 83 | 1016.9 |
| 20260507224259 | 54 | 251 | 0.0 | 0.0 | 0.00 | 0.14 | 0.00 | 83 | 1016.8 |
| 20260507223759 | 54 | 251 | 0.0 | 0.0 | 0.00 | 0.14 | 0.00 | 83 | 1016.8 |
| 20260507223259 | 54 | 251 | 0.0 | 0.0 | 0.00 | 0.14 | 0.00 | 83 | 1016.8 |
| 20260507222259 | 54 | 251 | 0.0 | 0.0 | 0.00 | 0.14 | 0.00 | 83 | 1016.7 |
| 20260507221758 | 54 | 251 | 0.0 | 0.0 | 0.00 | 0.14 | 0.00 | 82 | 1016.7 |
| 20260507221258 | 55 | 251 | 0.0 | 0.0 | 0.00 | 0.14 | 0.00 | 81 | 1016.6 |
| 20260507220758 | 55 | 251 | 0.0 | 0.0 | 0.00 | 0.14 | 0.00 | 81 | 1016.6 |
| 20260507220258 | 55 | 251 | 0.0 | 0.0 | 0.00 | 0.14 | 0.00 | 81 | 1016.6 |
| 20260507215259 | 55 | 251 | 0.0 | 0.0 | 0.00 | 0.14 | 0.14 | 81 | 1016.6 |
| 20260507214759 | 55 | 251 | 0.0 | 0.0 | 0.00 | 0.14 | 0.14 | 81 | 1016.6 |
| 20260507214258 | 55 | 251 | 0.0 | 0.0 | 0.00 | 0.14 | 0.14 | 81 | 1016.6 |
| 20260507213758 | 55 | 251 | 0.0 | 0.0 | 0.00 | 0.14 | 0.14 | 81 | 1016.6 |
| 20260507213257 | 55 | 251 | 0.0 | 0.0 | 0.00 | 0.14 | 0.14 | 81 | 1016.6 |
| 20260507212758 | 55 | 251 | 0.0 | 0.0 | 0.00 | 0.14 | 0.14 | 80 | 1016.5 |
| 20260507211758 | 56 | 251 | 0.0 | 0.0 | 0.00 | 0.14 | 0.14 | 79 | 1016.5 |
| 20260507210757 | 56 | 251 | 0.0 | 0.0 | 0.00 | 0.14 | 0.14 | 79 | 1016.5 |
| 20260507210259 | 56 | 251 | 0.0 | 0.0 | 0.00 | 0.14 | 0.14 | 78 | 1016.5 |
| 20260507205257 | 56 | 229 | 0.0 | 0.0 | 0.00 | 0.14 | 0.14 | 78 | 1016.4 |
| 20260507204257 | 56 | 229 | 0.0 | 0.0 | 0.00 | 0.14 | 0.14 | 79 | 1016.3 |
| 20260507203258 | 56 | 229 | 0.0 | 0.0 | 0.00 | 0.14 | 0.14 | 78 | 1016.3 |
| 20260507202258 | 57 | 229 | 0.0 | 0.0 | 0.00 | 0.14 | 0.14 | 78 | 1016.1 |
| 20260507201258 | 57 | 230 | 0.0 | 0.0 | 0.00 | 0.14 | 0.14 | 78 | 1016.1 |
| 20260507200758 | 57 | 230 | 0.0 | 0.0 | 0.00 | 0.14 | 0.14 | 79 | 1016.1 |
| 20260507200258 | 57 | 230 | 0.0 | 0.0 | 0.00 | 0.14 | 0.14 | 79 | 1016.1 |
| 20260507195759 | 57 | 231 | 0.0 | 0.0 | 0.00 | 0.14 | 0.14 | 81 | 1016.1 |
| 20260507195258 | 57 | 231 | 0.0 | 0.0 | 0.00 | 0.14 | 0.14 | 81 | 1016.1 |
| 20260507194759 | 56 | 226 | 0.0 | 0.0 | 0.00 | 0.14 | 0.14 | 81 | 1016.1 |
| 20260507194258 | 56 | 225 | 0.0 | 0.0 | 0.00 | 0.14 | 0.14 | 81 | 1015.9 |
| 20260507193759 | 56 | 225 | 0.0 | 0.0 | 0.00 | 0.14 | 0.14 | 80 | 1015.9 |
| 20260507193258 | 56 | 225 | 0.0 | 0.0 | 0.00 | 0.14 | 0.14 | 81 | 1015.9 |
| 20260507192758 | 56 | 226 | 0.0 | 0.0 | 0.00 | 0.14 | 0.14 | 81 | 1015.7 |
| 20260507192258 | 57 | 224 | 0.0 | 0.0 | 0.00 | 0.14 | 0.14 | 80 | 1015.7 |
| 20260507191758 | 57 | 224 | 0.0 | 0.0 | 0.00 | 0.14 | 0.14 | 79 | 1015.7 |
| 20260507191259 | 57 | 224 | 0.0 | 0.0 | 0.00 | 0.14 | 0.14 | 79 | 1015.3 |
| 20260507190758 | 57 | 224 | 0.0 | 0.0 | 0.00 | 0.14 | 0.14 | 78 | 1015.3 |
| 20260507190300 | 57 | 224 | 0.0 | 0.0 | 0.00 | 0.14 | 0.14 | 78 | 1015.3 |
| 20260507185758 | 57 | 224 | 0.0 | 0.0 | 0.00 | 0.14 | 0.14 | 78 | 1015.1 |
| 20260507185258 | 57 | 224 | 0.0 | 0.0 | 0.00 | 0.14 | 0.14 | 77 | 1015.1 |
| 20260507184258 | 57 | 224 | 0.0 | 0.0 | 0.00 | 0.14 | 0.14 | 78 | 1014.8 |
| 20260507183258 | 57 | 225 | 0.0 | 0.0 | 0.00 | 0.14 | 0.14 | 77 | 1014.8 |
| 20260507182758 | 57 | 224 | 0.0 | 0.0 | 0.00 | 0.14 | 0.14 | 77 | 1014.6 |
| 20260507181758 | 58 | 222 | 0.0 | 0.0 | 0.00 | 0.14 | 0.14 | 76 | 1014.6 |
| 20260507181258 | 58 | 223 | 0.0 | 0.0 | 0.00 | 0.14 | 0.14 | 75 | 1014.5 |
| 20260507180758 | 58 | 224 | 0.0 | 0.0 | 0.00 | 0.14 | 0.14 | 74 | 1014.5 |
| 20260507180259 | 58 | 223 | 0.0 | 0.0 | 0.00 | 0.14 | 0.14 | 74 | 1014.5 |
| 20260507175259 | 59 | 234 | 0.0 | 0.0 | 0.00 | 0.14 | 0.14 | 73 | 1014.2 |
| 20260507174758 | 59 | 220 | 0.0 | 0.0 | 0.00 | 0.14 | 0.14 | 72 | 1014.2 |
| 20260507174257 | 59 | 222 | 0.0 | 0.0 | 0.00 | 0.14 | 0.14 | 71 | 1014.1 |
| 20260507173758 | 60 | 168 | 0.0 | 0.0 | 0.00 | 0.14 | 0.14 | 70 | 1014.1 |
| 20260507173258 | 60 | 230 | 0.0 | 0.0 | 0.00 | 0.14 | 0.14 | 70 | 1014.1 |
| 20260507172758 | 60 | 231 | 0.0 | 0.0 | 0.00 | 0.14 | 0.14 | 68 | 1013.9 |
| 20260507172258 | 60 | 231 | 0.0 | 0.0 | 0.00 | 0.14 | 0.14 | 67 | 1013.9 |
| 20260507171258 | 60 | 243 | 1.0 | 0.0 | 0.00 | 0.14 | 0.14 | 74 | 1013.8 |
| 20260507170759 | 60 | 243 | 1.0 | 0.0 | 0.00 | 0.14 | 0.14 | 74 | 1013.8 |
| 20260507170258 | 60 | 245 | 0.0 | 6.0 | 0.00 | 0.14 | 0.14 | 75 | 1013.8 |
| 20260507164800 | 61 | 229 | 0.0 | 0.0 | 0.00 | 0.14 | 0.14 | 75 | 1014.0 |
| 20260507164258 | 62 | 229 | 0.0 | 0.0 | 0.00 | 0.14 | 0.14 | 75 | 1013.9 |
| 20260507163758 | 63 | 231 | 0.0 | 0.0 | 0.00 | 0.14 | 0.14 | 74 | 1013.9 |
| 20260507163258 | 63 | 231 | 0.0 | 0.0 | 0.00 | 0.14 | 0.14 | 72 | 1013.9 |
| 20260507162759 | 63 | 231 | 0.0 | 0.0 | 0.00 | 0.14 | 0.14 | 72 | 1013.9 |
| 20260507162259 | 63 | 33 | 0.0 | 0.0 | 0.00 | 0.14 | 0.14 | 69 | 1013.9 |
| 20260507161759 | 63 | 33 | 0.0 | 0.0 | 0.00 | 0.14 | 0.14 | 69 | 1013.9 |
| 20260507161258 | 63 | 33 | 0.0 | 0.0 | 0.00 | 0.14 | 0.14 | 69 | 1014.1 |
| 20260507160758 | 63 | 34 | 0.0 | 0.0 | 0.00 | 0.14 | 0.14 | 69 | 1014.1 |
| 20260507160259 | 63 | 34 | 0.0 | 0.0 | 0.00 | 0.14 | 0.14 | 68 | 1014.1 |
| 20260507155800 | 63 | 29 | 0.0 | 6.0 | 0.00 | 0.14 | 0.14 | 70 | 1014.0 |
| 20260507155300 | 63 | 224 | 0.0 | 0.0 | 0.00 | 0.14 | 0.14 | 72 | 1014.0 |
| 20260507154258 | 63 | 94 | 0.0 | 0.0 | 0.00 | 0.14 | 0.14 | 68 | 1014.0 |
| 20260507153757 | 63 | 94 | 0.0 | 0.0 | 0.00 | 0.14 | 0.14 | 69 | 1014.0 |
| 20260507152758 | 63 | 108 | 0.0 | 0.0 | 0.00 | 0.14 | 0.14 | 69 | 1013.9 |
| 20260507152258 | 63 | 108 | 0.0 | 0.0 | 0.00 | 0.14 | 0.14 | 67 | 1013.9 |
| 20260507151758 | 63 | 102 | 0.0 | 5.0 | 0.00 | 0.14 | 0.14 | 66 | 1013.9 |
| 20260507151259 | 64 | 75 | 0.0 | 0.0 | 0.00 | 0.14 | 0.14 | 65 | 1013.9 |
| 20260507150758 | 64 | 47 | 0.0 | 0.0 | 0.00 | 0.14 | 0.14 | 63 | 1013.9 |
| 20260507150259 | 64 | 113 | 0.0 | 0.0 | 0.00 | 0.14 | 0.14 | 62 | 1013.9 |
| 20260507145759 | 64 | 148 | 0.0 | 0.0 | 0.00 | 0.14 | 0.14 | 62 | 1013.9 |
| 20260507145258 | 64 | 175 | 0.0 | 0.0 | 0.00 | 0.14 | 0.14 | 65 | 1013.9 |
| 20260507144758 | 64 | 219 | 0.0 | 0.0 | 0.00 | 0.14 | 0.14 | 63 | 1013.9 |
| 20260507144258 | 64 | 202 | 0.0 | 0.0 | 0.00 | 0.14 | 0.14 | 63 | 1014.0 |
| 20260507143800 | 64 | 203 | 0.0 | 0.0 | 0.00 | 0.14 | 0.14 | 62 | 1014.0 |
| 20260507143257 | 65 | 140 | 0.0 | 0.0 | 0.00 | 0.14 | 0.14 | 60 | 1014.0 |
| 20260507142758 | 65 | 133 | 0.0 | 0.0 | 0.00 | 0.14 | 0.14 | 61 | 1014.2 |
| 20260507142259 | 65 | 150 | 0.0 | 0.0 | 0.00 | 0.14 | 0.14 | 65 | 1014.2 |
| 20260507141258 | 64 | 60 | 0.0 | 0.0 | 0.00 | 0.14 | 0.14 | 63 | 1014.2 |
| 20260507140758 | 64 | 49 | 0.0 | 0.0 | 0.00 | 0.14 | 0.14 | 62 | 1014.2 |
| 20260507140259 | 64 | 99 | 0.0 | 0.0 | 0.00 | 0.14 | 0.14 | 63 | 1014.2 |
| 20260507135758 | 63 | 112 | 0.0 | 0.0 | 0.00 | 0.14 | 0.14 | 65 | 1014.4 |
| 20260507134800 | 62 | 51 | 0.0 | 0.0 | 0.00 | 0.14 | 0.14 | 68 | 1014.4 |
| 20260507134300 | 62 | 36 | 0.0 | 0.0 | 0.00 | 0.14 | 0.14 | 67 | 1014.4 |
| 20260507133758 | 62 | 40 | 0.0 | 0.0 | 0.00 | 0.14 | 0.14 | 67 | 1014.4 |
| 20260507133258 | 63 | 72 | 0.0 | 0.0 | 0.00 | 0.14 | 0.14 | 68 | 1014.4 |
| 20260507132758 | 63 | 50 | 0.0 | 0.0 | 0.00 | 0.14 | 0.14 | 65 | 1014.5 |
| 20260507132258 | 63 | 22 | 0.0 | 0.0 | 0.00 | 0.14 | 0.14 | 62 | 1014.5 |
| 20260507131759 | 63 | 6 | 0.0 | 0.0 | 0.00 | 0.14 | 0.14 | 60 | 1014.5 |
| 20260507130758 | 62 | 336 | 0.0 | 0.0 | 0.00 | 0.14 | 0.14 | 61 | 1014.6 |
| 20260507130258 | 62 | 336 | 1.0 | 0.0 | 0.00 | 0.14 | 0.14 | 65 | 1014.6 |
| 20260507125758 | 61 | 60 | 1.0 | 0.0 | 0.00 | 0.14 | 0.14 | 65 | 1014.7 |
| 20260507125258 | 61 | 10 | 0.0 | 6.0 | 0.00 | 0.14 | 0.14 | 68 | 1014.7 |
| 20260507124758 | 60 | 37 | 0.0 | 9.0 | 0.00 | 0.14 | 0.14 | 72 | 1014.7 |
| 20260507124259 | 60 | 39 | 0.0 | 0.0 | 0.00 | 0.14 | 0.14 | 67 | 1014.6 |
| 20260507123758 | 59 | 56 | 0.0 | 0.0 | 0.00 | 0.14 | 0.14 | 69 | 1014.6 |
| 20260507123258 | 58 | 343 | 2.0 | 7.0 | 0.03 | 0.14 | 0.14 | 72 | 1014.6 |
| 20260507122758 | 57 | 55 | 2.0 | 5.0 | 0.03 | 0.14 | 0.14 | 84 | 1014.7 |
| 20260507121800 | 56 | 235 | 2.0 | 8.0 | 0.06 | 0.14 | 0.14 | 82 | 1014.7 |
| 20260507121258 | 55 | 237 | 2.0 | 10.0 | 0.07 | 0.14 | 0.14 | 81 | 1014.9 |
| 20260507120759 | 55 | 228 | 2.0 | 0.0 | 0.08 | 0.14 | 0.14 | 83 | 1014.9 |
| 20260507120258 | 55 | 43 | 12.0 | 5.0 | 0.10 | 0.14 | 0.14 | 81 | 1014.9 |
| 20260507115758 | 55 | 46 | 12.0 | 8.0 | 0.14 | 0.14 | 0.14 | 79 | 1014.8 |
| 20260507114800 | 55 | 229 | 18.0 | 21.0 | 0.14 | 0.14 | 0.14 | 76 | 1014.8 |
| 20260507114258 | 55 | 233 | 17.0 | 25.0 | 0.14 | 0.14 | 0.14 | 74 | 1014.4 |
| 20260507113800 | 57 | 225 | 17.0 | 28.0 | 0.14 | 0.14 | 0.14 | 68 | 1014.4 |
| 20260507113258 | 58 | 221 | 15.0 | 22.0 | 0.11 | 0.11 | 0.11 | 67 | 1014.4 |
| 20260507112759 | 57 | 225 | 15.0 | 24.0 | 0.11 | 0.11 | 0.11 | 66 | 1014.4 |
| 20260507112259 | 57 | 235 | 16.0 | 24.0 | 0.11 | 0.11 | 0.11 | 72 | 1014.4 |
| 20260507111758 | 58 | 228 | 16.0 | 24.0 | 0.08 | 0.08 | 0.08 | 73 | 1014.4 |
| 20260507111258 | 58 | 240 | 15.0 | 25.0 | 0.07 | 0.07 | 0.07 | 72 | 1014.2 |
| 20260507110759 | 59 | 228 | 15.0 | 22.0 | 0.06 | 0.06 | 0.06 | 70 | 1014.2 |
| 20260507110259 | 61 | 223 | 5.0 | 21.0 | 0.04 | 0.04 | 0.04 | 67 | 1014.2 |
| 20260507105758 | 64 | 226 | 5.0 | 24.0 | 0.00 | 0.00 | 0.00 | 60 | 1013.8 |
| 20260507104758 | 67 | 112 | 5.0 | 12.0 | 0.00 | 0.00 | 0.00 | 59 | 1013.8 |
| 20260507104259 | 67 | 121 | 5.0 | 15.0 | 0.00 | 0.00 | 0.00 | 59 | 1013.8 |
| 20260507103758 | 67 | 98 | 5.0 | 10.0 | 0.00 | 0.00 | 0.00 | 59 | 1013.8 |
| 20260507103258 | 67 | 63 | 2.0 | 9.0 | 0.00 | 0.00 | 0.00 | 59 | 1013.8 |
| 20260507102759 | 67 | 60 | 2.0 | 10.0 | 0.00 | 0.00 | 0.00 | 56 | 1013.9 |
| 20260507101759 | 67 | 55 | 0.0 | 9.0 | 0.00 | 0.00 | 0.00 | 58 | 1013.9 |
| 20260507101258 | 67 | 87 | 0.0 | 0.0 | 0.00 | 0.00 | 0.00 | 55 | 1014.1 |
| 20260507100300 | 66 | 99 | 0.0 | 1.0 | 0.00 | 0.00 | 0.00 | 59 | 1014.1 |
| 20260507095758 | 66 | 70 | 0.0 | 0.0 | 0.00 | 0.00 | 0.00 | 57 | 1014.1 |
| 20260507095258 | 65 | 88 | 0.0 | 0.0 | 0.00 | 0.00 | 0.00 | 60 | 1014.1 |
| 20260507094758 | 65 | 76 | 0.0 | 0.0 | 0.00 | 0.00 | 0.00 | 60 | 1014.1 |
| 20260507094258 | 64 | 55 | 0.0 | 0.0 | 0.00 | 0.00 | 0.00 | 62 | 1014.4 |
| 20260507093759 | 63 | 23 | 0.0 | 0.0 | 0.00 | 0.00 | 0.00 | 65 | 1014.4 |
| 20260507093259 | 63 | 16 | 0.0 | 0.0 | 0.00 | 0.00 | 0.00 | 63 | 1014.4 |
| 20260507092758 | 64 | 19 | 0.0 | 0.0 | 0.00 | 0.00 | 0.00 | 63 | 1014.3 |
| 20260507092259 | 63 | 4 | 0.0 | 0.0 | 0.00 | 0.00 | 0.00 | 64 | 1014.3 |
| 20260507091800 | 63 | 4 | 0.0 | 0.0 | 0.00 | 0.00 | 0.00 | 64 | 1014.3 |
| 20260507091258 | 63 | 4 | 0.0 | 0.0 | 0.00 | 0.00 | 0.00 | 64 | 1014.4 |
| 20260507090800 | 63 | 10 | 0.0 | 0.0 | 0.00 | 0.00 | 0.00 | 64 | 1014.4 |
| 20260507085758 | 62 | 28 | 0.0 | 0.0 | 0.00 | 0.00 | 0.00 | 69 | 1014.5 |
| 20260507085258 | 62 | 105 | 0.0 | 0.0 | 0.00 | 0.00 | 0.00 | 70 | 1014.5 |
| 20260507084758 | 62 | 101 | 0.0 | 0.0 | 0.00 | 0.00 | 0.00 | 69 | 1014.5 |
| 20260507084259 | 61 | 17 | 0.0 | 0.0 | 0.00 | 0.00 | 0.00 | 69 | 1014.6 |
| 20260507083759 | 61 | 57 | 0.0 | 0.0 | 0.00 | 0.00 | 0.00 | 71 | 1014.6 |
| 20260507083258 | 61 | 170 | 0.0 | 0.0 | 0.00 | 0.00 | 0.00 | 71 | 1014.6 |
| 20260507082759 | 61 | 50 | 0.0 | 0.0 | 0.00 | 0.00 | 0.00 | 73 | 1014.6 |
| 20260507082259 | 61 | 33 | 0.0 | 0.0 | 0.00 | 0.00 | 0.00 | 72 | 1014.6 |
| 20260507081759 | 60 | 92 | 0.0 | 0.0 | 0.00 | 0.00 | 0.00 | 73 | 1014.6 |
| 20260507081259 | 60 | 81 | 0.0 | 0.0 | 0.00 | 0.00 | 0.00 | 75 | 1014.6 |
| 20260507080759 | 60 | 67 | 0.0 | 0.0 | 0.00 | 0.00 | 0.00 | 77 | 1014.6 |
| 20260507075759 | 60 | 27 | 0.0 | 0.0 | 0.00 | 0.00 | 0.00 | 76 | 1014.7 |
| 20260507075259 | 59 | 55 | 0.0 | 0.0 | 0.00 | 0.00 | 0.00 | 78 | 1014.7 |
| 20260507074759 | 59 | 93 | 0.0 | 0.0 | 0.00 | 0.00 | 0.00 | 79 | 1014.7 |
| 20260507074258 | 59 | 6 | 0.0 | 0.0 | 0.00 | 0.00 | 0.00 | 79 | 1014.6 |
| 20260507073758 | 58 | 51 | 0.0 | 0.0 | 0.00 | 0.00 | 0.00 | 80 | 1014.6 |
| 20260507073258 | 58 | 57 | 0.0 | 0.0 | 0.00 | 0.00 | 0.00 | 80 | 1014.6 |
| 20260507072759 | 58 | 82 | 0.0 | 0.0 | 0.00 | 0.00 | 0.00 | 81 | 1014.5 |
| 20260507071259 | 58 | 68 | 1.0 | 3.0 | 0.00 | 0.00 | 0.00 | 81 | 1014.6 |
| 20260507070759 | 57 | 58 | 1.0 | 1.0 | 0.00 | 0.00 | 0.00 | 84 | 1014.6 |
| 20260507070259 | 57 | 25 | 1.0 | 1.0 | 0.00 | 0.00 | 0.00 | 83 | 1014.6 |
| 20260507065759 | 57 | 40 | 1.0 | 7.0 | 0.00 | 0.00 | 0.00 | 83 | 1014.4 |
| 20260507065258 | 56 | 20 | 0.0 | 5.0 | 0.00 | 0.00 | 0.00 | 84 | 1014.4 |
| 20260507064759 | 56 | 33 | 0.0 | 5.0 | 0.00 | 0.00 | 0.00 | 84 | 1014.4 |
| 20260507064259 | 56 | 21 | 0.0 | 5.0 | 0.00 | 0.00 | 0.00 | 86 | 1014.4 |
| 20260507063758 | 55 | 43 | 0.0 | 0.0 | 0.00 | 0.00 | 0.00 | 84 | 1014.4 |
| 20260507063302 | 56 | 27 | 0.0 | 0.0 | 0.00 | 0.00 | 0.00 | 85 | 1014.4 |
| 20260507062758 | 56 | 24 | 0.0 | 0.0 | 0.00 | 0.00 | 0.00 | 85 | 1014.5 |
| 20260507062259 | 56 | 18 | 0.0 | 0.0 | 0.00 | 0.00 | 0.00 | 84 | 1014.5 |
| 20260507061259 | 55 | 28 | 0.0 | 0.0 | 0.00 | 0.00 | 0.00 | 85 | 1014.3 |
| 20260507060800 | 55 | 10 | 0.0 | 0.0 | 0.00 | 0.00 | 0.00 | 85 | 1014.3 |
| 20260507060259 | 54 | 10 | 0.0 | 0.0 | 0.00 | 0.00 | 0.00 | 86 | 1014.3 |
| 20260507055759 | 54 | 10 | 0.0 | 0.0 | 0.00 | 0.00 | 0.00 | 86 | 1014.3 |
| 20260507055258 | 53 | 31 | 0.0 | 0.0 | 0.00 | 0.00 | 0.00 | 87 | 1014.3 |
| 20260507054800 | 53 | 53 | 0.0 | 0.0 | 0.00 | 0.00 | 0.00 | 89 | 1014.3 |
| 20260507054259 | 52 | 53 | 0.0 | 0.0 | 0.00 | 0.00 | 0.00 | 88 | 1014.2 |
| 20260507053759 | 52 | 53 | 0.0 | 0.0 | 0.00 | 0.00 | 0.00 | 89 | 1014.2 |
| 20260507053259 | 52 | 304 | 0.0 | 0.0 | 0.00 | 0.00 | 0.00 | 89 | 1014.2 |
| 20260507052759 | 51 | 304 | 0.0 | 0.0 | 0.00 | 0.00 | 0.00 | 89 | 1014.2 |
| 20260507051758 | 51 | 304 | 0.0 | 0.0 | 0.00 | 0.00 | 0.00 | 88 | 1014.2 |
| 20260507051258 | 51 | 304 | 0.0 | 0.0 | 0.00 | 0.00 | 0.00 | 89 | 1014.1 |
| 20260507050800 | 51 | 304 | 0.0 | 0.0 | 0.00 | 0.00 | 0.00 | 89 | 1014.1 |
| 20260507045758 | 50 | 304 | 0.0 | 0.0 | 0.00 | 0.00 | 0.00 | 91 | 1014.1 |
| 20260507045259 | 50 | 304 | 0.0 | 0.0 | 0.00 | 0.00 | 0.00 | 91 | 1014.1 |
| 20260507044800 | 50 | 304 | 0.0 | 0.0 | 0.00 | 0.00 | 0.00 | 91 | 1014.1 |
| 20260507044259 | 50 | 304 | 0.0 | 0.0 | 0.00 | 0.00 | 0.00 | 90 | 1013.8 |
| 20260507043758 | 50 | 304 | 0.0 | 0.0 | 0.00 | 0.00 | 0.00 | 90 | 1013.8 |
| 20260507043300 | 50 | 304 | 0.0 | 0.0 | 0.00 | 0.00 | 0.00 | 90 | 1013.8 |
| 20260507042759 | 50 | 303 | 0.0 | 0.0 | 0.00 | 0.00 | 0.00 | 90 | 1013.7 |
| 20260507042259 | 50 | 304 | 0.0 | 0.0 | 0.00 | 0.00 | 0.00 | 89 | 1013.7 |
| 20260507041759 | 50 | 304 | 0.0 | 0.0 | 0.00 | 0.00 | 0.00 | 90 | 1013.7 |
| 20260507041258 | 50 | 304 | 0.0 | 0.0 | 0.00 | 0.00 | 0.00 | 91 | 1013.6 |
| 20260507040759 | 50 | 304 | 0.0 | 0.0 | 0.00 | 0.00 | 0.00 | 91 | 1013.6 |